TimeCDT,TemperatureF,Dew PointF,Humidity,Sea Level PressureIn,VisibilityMPH,Wind Direction,Wind SpeedMPH,Gust SpeedMPH,PrecipitationIn,Events,Conditions,WindDirDegrees,DateUTC
12:53 AM,75.9,73.0,91,30.01,10.0,Calm,Calm,-,N/A,,Clear,0,2013-09-10 05:53:00
1:53 AM,75.9,73.0,91,30.01,10.0,Calm,Calm,-,N/A,,Clear,0,2013-09-10 06:53:00
2:53 AM,75.0,72.0,90,30.02,10.0,Calm,Calm,-,N/A,,Clear,0,2013-09-10 07:53:00
3:53 AM,73.0,71.1,93,30.03,6.0,Calm,Calm,-,N/A,,Clear,0,2013-09-10 08:53:00
4:53 AM,72.0,70.0,93,30.04,7.0,Calm,Calm,-,N/A,,Clear,0,2013-09-10 09:53:00
5:53 AM,72.0,71.1,97,30.05,8.0,Calm,Calm,-,N/A,,Clear,0,2013-09-10 10:53:00
6:53 AM,73.0,71.1,93,30.06,7.0,Calm,Calm,-,0.01,,Clear,0,2013-09-10 11:53:00
7:53 AM,75.0,71.1,87,30.09,10.0,ENE,3.5,-,N/A,,Clear,70,2013-09-10 12:53:00
8:53 AM,79.0,73.0,82,30.09,10.0,Variable,3.5,-,N/A,,Clear,0,2013-09-10 13:53:00
9:53 AM,84.0,73.0,69,30.11,10.0,Variable,4.6,-,N/A,,Clear,0,2013-09-10 14:53:00
10:53 AM,86.0,69.1,57,30.11,10.0,ESE,6.9,-,N/A,,Clear,110,2013-09-10 15:53:00
11:53 AM,89.1,69.1,52,30.10,10.0,ENE,5.8,-,N/A,,Clear,70,2013-09-10 16:53:00
12:53 PM,91.0,70.0,50,30.09,10.0,East,4.6,-,N/A,,Clear,100,2013-09-10 17:53:00
1:53 PM,89.1,71.1,55,30.08,10.0,Variable,5.8,-,N/A,,Scattered Clouds,0,2013-09-10 18:53:00
2:53 PM,91.9,72.0,52,30.05,10.0,Variable,4.6,-,N/A,,Scattered Clouds,0,2013-09-10 19:53:00
3:23 PM,80.6,73.4,79,30.06,2.5,North,8.1,-,0.27,Rain,Heavy Rain,360,2013-09-10 20:23:00
3:30 PM,80.6,75.2,84,30.05,9.0,North,6.9,-,0.27,Rain,Light Rain,10,2013-09-10 20:30:00
3:53 PM,84.0,75.0,74,30.04,10.0,NNW,6.9,-,0.27,,Partly Cloudy,340,2013-09-10 20:53:00
4:53 PM,86.0,75.0,70,30.04,10.0,East,4.6,-,N/A,,Clear,90,2013-09-10 21:53:00
5:53 PM,84.0,73.0,69,30.03,10.0,Calm,Calm,-,N/A,,Clear,0,2013-09-10 22:53:00
6:53 PM,82.9,73.0,72,30.04,10.0,Calm,Calm,-,N/A,,Clear,0,2013-09-10 23:53:00
7:53 PM,81.0,72.0,74,30.05,10.0,South,4.6,-,N/A,,Clear,170,2013-09-11 00:53:00
8:53 PM,79.0,73.9,84,30.06,10.0,Calm,Calm,-,N/A,,Clear,0,2013-09-11 01:53:00
9:53 PM,78.1,73.9,87,30.08,10.0,Calm,Calm,-,N/A,,Clear,0,2013-09-11 02:53:00
10:53 PM,78.1,75.0,90,30.09,10.0,Calm,Calm,-,N/A,,Clear,0,2013-09-11 03:53:00
11:53 PM,75.9,73.0,91,30.09,10.0,Calm,Calm,-,N/A,,Clear,0,2013-09-11 04:53:00